sat.trackr.live / text

‹ back to catalog

STARLINK-34666

NORAD 64794 · 2025-150E

PAYLOAD ACTIVE UNKNOWN

§ Identity

Operator
Country
US
Launch date
2025-07-16
Launch site
AFWTR
Launch vehicle
Mass (kg)
RCS (m²)

Purposes: comms

External: N2YO · Heavens-Above · Gunter

§ Orbital elements

Epoch: 2026-05-25T03:21:14.857056Z

Period
96.11 min
Inclination
70.0005°
Eccentricity
0.0002556
Mean motion
14.98328647 rev/d
Perigee alt
570.3 km
Apogee alt
573.8 km
Semi-major
6,950.2 km
B*
-6.1977e-5
RAAN
301.8862°
Arg perigee
270.8533°
Mean anomaly
89.2333°
Rev number
4,796

§ Raw data

STARLINK-346661 64794U 25150E   26145.13975529 -.00000832  00000+0 -61977-4 0  99902 64794  70.0005 301.8862 0002556 270.8533  89.2333 14.98328647 47964

JSON: /api/v1/satellites/64794 · /tle

For live sub-satellite position, see the globe view (requires WebGL).

§ Visibility from observer

Set your observer location to see the next 7 days of passes ≥ 10°. The values pass through the URL so the page stays shareable.

No JS? Fill the form by hand. The geolocation button needs JavaScript.